| time (UTC) | temp F | wind direction | speed MPH | gust MPH | rain 1hr in | rain 24hr in | rain mn in | humidity % | barometer mb |
| 20260502234540 | 55 | 321 | 0.0 | 0.0 | 0.00 | 0.01 | 0.01 | 53 | 1017.1 |
| 20260502233037 | 55 | 333 | 0.0 | 0.0 | 0.00 | 0.01 | 0.01 | 51 | 1017.0 |
| 20260502231526 | 55 | 305 | 0.0 | 0.0 | 0.00 | 0.01 | 0.01 | 53 | 1016.9 |
| 20260502230032 | 55 | 342 | 0.0 | 0.0 | 0.00 | 0.01 | 0.01 | 54 | 1016.9 |
| 20260502224522 | 56 | 321 | 0.0 | 0.0 | 0.00 | 0.01 | 0.01 | 51 | 1016.8 |
| 20260502223029 | 56 | 121 | 0.0 | 0.0 | 0.00 | 0.01 | 0.01 | 53 | 1016.8 |
| 20260502221515 | 55 | 16 | 0.0 | 0.0 | 0.00 | 0.01 | 0.01 | 51 | 1016.8 |
| 20260502220011 | 55 | 340 | 0.0 | 0.0 | 0.00 | 0.01 | 0.01 | 54 | 1016.7 |
| 20260502214505 | 56 | 90 | 0.0 | 0.0 | 0.00 | 0.01 | 0.01 | 54 | 1016.5 |
| 20260502213002 | 57 | 113 | 0.0 | 0.0 | 0.00 | 0.01 | 0.01 | 53 | 1016.6 |
| 20260502211557 | 56 | 22 | 0.0 | 0.0 | 0.00 | 0.01 | 0.01 | 56 | 1016.7 |
| 20260502210105 | 55 | 38 | 0.0 | 0.0 | 0.00 | 0.01 | 0.01 | 57 | 1016.8 |
| 20260502204553 | 55 | 332 | 0.0 | 0.0 | 0.00 | 0.01 | 0.01 | 58 | 1017.0 |
| 20260502203049 | 55 | 335 | 0.0 | 0.0 | 0.00 | 0.01 | 0.01 | 58 | 1017.0 |
| 20260502201539 | 55 | 346 | 0.0 | 0.0 | 0.00 | 0.01 | 0.01 | 56 | 1017.0 |
| 20260502200035 | 55 | 295 | 0.0 | 0.0 | 0.00 | 0.01 | 0.01 | 54 | 1017.0 |
| 20260502194533 | 56 | 329 | 0.0 | 0.0 | 0.00 | 0.01 | 0.01 | 54 | 1017.1 |
| 20260502193026 | 57 | 284 | 0.0 | 0.0 | 0.00 | 0.01 | 0.01 | 49 | 1016.9 |
| 20260502191521 | 57 | 349 | 0.0 | 0.0 | 0.00 | 0.01 | 0.01 | 50 | 1016.9 |
| 20260502190016 | 57 | 293 | 0.0 | 0.0 | 0.00 | 0.01 | 0.01 | 50 | 1016.9 |
| 20260502184513 | 57 | 327 | 0.0 | 0.0 | 0.00 | 0.01 | 0.01 | 52 | 1016.9 |
| 20260502183008 | 58 | 61 | 0.0 | 0.0 | 0.00 | 0.01 | 0.01 | 48 | 1017.0 |
| 20260502181509 | 58 | 302 | 0.0 | 0.0 | 0.00 | 0.01 | 0.01 | 47 | 1017.0 |
| 20260502163045 | 58 | 284 | 0.0 | 0.0 | 0.00 | 0.01 | 0.01 | 48 | 1017.5 |
| 20260502161528 | 59 | 55 | 0.0 | 0.0 | 0.00 | 0.01 | 0.01 | 49 | 1017.5 |
| 20260502151524 | 58 | 5 | 0.0 | 0.0 | 0.00 | 0.01 | 0.01 | 52 | 1017.7 |
| 20260502123033 | 41 | 323 | 0.0 | 0.0 | 0.00 | 0.01 | 0.01 | 1 | 1017.8 |
| 20260502121516 | 41 | 323 | 0.0 | 0.0 | 0.00 | 0.01 | 0.01 | 1 | 1017.9 |
| 20260502114507 | 36 | 313 | 0.0 | 0.0 | 0.01 | 0.01 | 0.01 | 1 | 1017.7 |
| 20260502113004 | 36 | 313 | 0.0 | 0.0 | 0.01 | 0.01 | 0.01 | 1 | 1017.6 |
| 20260502111603 | 36 | 313 | 0.0 | 0.0 | 0.01 | 0.01 | 0.01 | 1 | 1017.3 |
| 20260502110055 | 36 | 313 | 0.0 | 0.0 | 0.00 | 0.00 | 0.00 | 1 | 1017.2 |
| 20260502104550 | 36 | 313 | 0.0 | 0.0 | 0.00 | 0.00 | 0.00 | 1 | 1017.1 |
| 20260502103047 | 36 | 313 | 0.0 | 0.0 | 0.00 | 0.00 | 0.00 | 1 | 1017.1 |
| 20260502101551 | 37 | 313 | 0.0 | 0.0 | 0.00 | 0.00 | 0.00 | 1 | 1016.9 |
| 20260502091526 | 37 | 313 | 0.0 | 0.0 | 0.00 | 0.00 | 0.00 | 1 | 1016.8 |
| 20260502070050 | 37 | 313 | 0.0 | 0.0 | 0.00 | 0.00 | 0.00 | 1 | 1017.1 |
| 20260502064543 | 38 | 313 | 0.0 | 0.0 | 0.00 | 0.00 | 0.00 | 1 | 1017.2 |
| 20260502063038 | 38 | 313 | 0.0 | 0.0 | 0.00 | 0.00 | 0.00 | 1 | 1017.1 |
| 20260502061538 | 38 | 313 | 0.0 | 0.0 | 0.00 | 0.00 | 0.00 | 1 | 1017.0 |
| 20260502060029 | 38 | 313 | 0.0 | 0.0 | 0.00 | 0.00 | 0.00 | 1 | 1016.8 |
| 20260502054524 | 38 | 313 | 0.0 | 0.0 | 0.00 | 0.00 | 0.00 | 1 | 1017.0 |
| 20260502053019 | 39 | 313 | 0.0 | 0.0 | 0.00 | 0.00 | 0.00 | 1 | 1017.4 |
| 20260502051522 | 39 | 313 | 0.0 | 0.0 | 0.00 | 0.00 | 0.00 | 1 | 1017.4 |
| 20260502050010 | 39 | 313 | 0.0 | 0.0 | 0.00 | 0.00 | 0.00 | 1 | 1017.4 |
| 20260502044506 | 39 | 313 | 0.0 | 0.0 | 0.00 | 0.00 | 0.00 | 1 | 1017.2 |
| 20260502043002 | 40 | 313 | 0.0 | 0.0 | 0.00 | 0.00 | 0.00 | 1 | 1017.6 |
| 20260502041604 | 40 | 313 | 0.0 | 0.0 | 0.00 | 0.00 | 0.00 | 4 | 1017.6 |
| 20260502040057 | 41 | 313 | 0.0 | 0.0 | 0.00 | 0.00 | 0.00 | 10 | 1017.5 |
| 20260502034549 | 42 | 313 | 0.0 | 0.0 | 0.00 | 0.00 | 0.00 | 24 | 1017.7 |
| 20260502033044 | 42 | 313 | 0.0 | 0.0 | 0.00 | 0.00 | 0.00 | 28 | 1017.6 |
| 20260502031540 | 43 | 313 | 0.0 | 0.0 | 0.00 | 0.00 | 0.00 | 36 | 1017.6 |
| 20260502030035 | 44 | 313 | 0.0 | 0.0 | 0.00 | 0.00 | 0.00 | 43 | 1017.5 |
| 20260502024531 | 45 | 313 | 0.0 | 0.0 | 0.00 | 0.00 | 0.00 | 54 | 1017.4 |
| 20260502023027 | 45 | 313 | 0.0 | 0.0 | 0.00 | 0.00 | 0.00 | 57 | 1017.1 |
| 20260502021522 | 46 | 313 | 0.0 | 0.0 | 0.00 | 0.00 | 0.00 | 68 | 1017.1 |
| 20260502020018 | 47 | 313 | 0.0 | 0.0 | 0.00 | 0.00 | 0.00 | 69 | 1016.9 |
| 20260502014513 | 48 | 313 | 0.0 | 0.0 | 0.00 | 0.00 | 0.00 | 70 | 1016.7 |
| 20260502013010 | 50 | 313 | 0.0 | 0.0 | 0.00 | 0.00 | 0.00 | 68 | 1016.3 |
| 20260502011506 | 52 | 313 | 0.0 | 0.0 | 0.00 | 0.00 | 0.00 | 66 | 1016.3 |
| 20260502010007 | 54 | 309 | 0.0 | 0.0 | 0.00 | 0.00 | 0.00 | 62 | 1015.6 |
| 20260502004504 | 55 | 309 | 0.0 | 0.0 | 0.00 | 0.00 | 0.00 | 53 | 1015.0 |
| 20260502003005 | 57 | 326 | 0.0 | 0.0 | 0.00 | 0.00 | 0.00 | 49 | 1014.7 |
| 20260502001505 | 58 | 329 | 0.0 | 0.0 | 0.00 | 0.00 | 0.00 | 46 | 1014.6 |
| 20260502000004 | 59 | 338 | 0.0 | 0.0 | 0.00 | 0.00 | 0.00 | 44 | 1014.3 |